Regional Weather Roundup
Issued by NWS Cleveland, OH

Home | Current Version | Previous Version | Text Only | Print | Product List | Glossary Off
Versions: 1 2 3 4 5 6 7 8 9 10 11 12 13 14 15 16 17 18 19 20 21 22 23 24 25 26 27 28 29 30 31 32 33 34 35 36 37 38 39 40 41 42 43 44 45 46 47 48 49 50

000
ASUS41 KCLE 282200
RWRCLE
OHIO REGIONAL WEATHER ROUNDUP
NATIONAL WEATHER SERVICE WILMINGTON, OH
500 PM EST SUN DEC 28 2014

NOTE: "FAIR" INDICATES FEW OR NO CLOUDS BELOW 12,000 FEET WITH NO
SIGNIFICANT WEATHER AND/OR OBSTRUCTIONS TO VISIBILITY.

OHZ001>008-015>018-024>027-034-035-043-044-282300-
   NORTHWEST OHIO

CITY           SKY/WX    TMP DP  RH WIND       PRES   REMARKS
DEFIANCE       MOCLDY    35  25  66 W5        30.16R
FINDLAY        CLOUDY    35  27  72 W9        30.13R WCI  28
TOLEDO EXPRESS MOCLDY    34  25  69 W8        30.14R WCI  27
TOLEDO METCALF CLOUDY    35  25  66 W8        30.15R WCI  29
LIMA           CLOUDY    36  27  69 NW10      30.14R
$$

OHZ009>014-019>023-028>033-038-089-282300-
   NORTHEAST OHIO

CITY           SKY/WX    TMP DP  RH WIND       PRES   REMARKS
CLE-HOPKINS    CLOUDY    35  29  78 NW9       30.14R WCI  28
CLE-LAKEFRONT  CLOUDY    36  32  85 W12       30.12R
CUY CO. ARPT   CLOUDY    37  34  87 W13       30.11R
LORAIN-ELYRIA  CLOUDY    35  28  75 NW8       30.13R WCI  29
ASHTABULA      CLOUDY    35  29  78 W3        30.09R
AKRON-CANTON   CLOUDY    37  29  72 W3        30.09R
WOOSTER        NOT AVBL
MANSFIELD      CLOUDY    35  30  82 W6        30.10R
YOUNGSTOWN     CLOUDY    34  31  88 NW5       30.08R WCI  30
$$

OHZ042-051>053-060>062-070>072-077>081-282300-
  SOUTHWEST OHIO

CITY           SKY/WX    TMP DP  RH WIND       PRES   REMARKS
CINC-COVINGTON CLOUDY    36  27  69 N8        30.15R
CINC-LUNKEN    CLOUDY    37  30  75 NW6       30.18R
HAMILTON       CLOUDY    37  29  72 NW3       30.17S
DAYTON         NOT AVBL
WRIGHT-PAT AFB NOT AVBL
DAYTON GENERAL CLOUDY    36  28  73 NW7       30.14R
WILMINGTON     CLOUDY    35  28  75 N7        30.13R WCI  29
$$

OHZ036-037-039>041-045>050-054>059-063>069-073>076-082>088-282300-
  CENTRAL AND SOUTHEAST OHIO

CITY           SKY/WX    TMP DP  RH WIND       PRES   REMARKS
COLUMBUS       CLOUDY    37  29  72 NW7       30.12S
OSU AIRPORT    CLOUDY    37  29  72 NW9       30.12R
BOLTON FIELD   CLOUDY    36  30  80 NW9       30.13S
RICKENBACK AFB CLOUDY    37  30  76 NW5       30.13S
NEWARK         CLOUDY    38  30  73 NW7       30.11S
MARION         CLOUDY    36  29  75 NW7       30.13R
LANCASTER      CLOUDY    38  30  73 NW5       30.12S
ZANESVILLE     CLOUDY    37  29  72 NW5       30.11S
NEW PHILLY     CLOUDY    39  30  70 NW6       30.12R
$$


USA.gov is the U.S. government's official web portal to all federal, state and local government web resources and services.